CQ0XCH-11 Weather Reports


time (UTC)temp
F
wind
direction
speed
knots
gust
knots
rain 1hr
in
rain 24hr
in
rain mn
in
humidity
%
barometer
mb
20260508100545 74 138 2.6 5.2 0.00 0.00 0.00 28 989.7
20260508100327 74 130 2.6 6.1 0.00 0.00 0.00 28 989.6
20260508100157 74 149 2.6 6.1 0.00 0.00 0.00 27 989.7
20260508095521 75 167 2.6 3.5 0.00 0.00 0.00 26 989.8
20260508095318 75 123 0.9 4.3 0.00 0.00 0.00 27 989.8
20260508095123 75 228 2.6 4.3 0.00 0.00 0.00 27 989.9
20260508095000 75 240 0.9 4.3 0.00 0.00 0.00 27 989.8
20260508094712 75 253 1.7 2.6 0.00 0.00 0.00 27 989.8
20260508094525 75 133 1.7 2.6 0.00 0.00 0.00 28 989.9
20260508094257 75 231 0.9 2.6 0.00 0.00 0.00 28 989.8
20260508094120 75 173 2.6 3.5 0.00 0.00 0.00 27 989.8
20260508093858 75 138 0.9 3.5 0.00 0.00 0.00 26 989.8
20260508093655 76 127 0.9 3.5 0.00 0.00 0.00 27 989.8
20260508093453 76 234 2.6 3.5 0.00 0.00 0.00 27 989.8
20260508092910 75 230 1.7 3.5 0.00 0.00 0.00 29 989.8
20260508092630 75 211 0.9 3.5 0.00 0.00 0.00 29 989.9
20260508092433 74 251 2.6 3.5 0.00 0.00 0.00 30 989.9
20260508092259 74 236 1.7 4.3 0.00 0.00 0.00 30 989.8
20260508092036 73 349 0.9 4.3 0.00 0.00 0.00 31 989.9
20260508091821 72 132 4.3 4.3 0.00 0.00 0.00 31 990.0
20260508091710 72 148 0.9 3.5 0.00 0.00 0.00 32 989.9
20260508091417 72 203 2.6 3.5 0.00 0.00 0.00 33 990.0
20260508091223 72 213 3.5 5.2 0.00 0.00 0.00 34 990.1
20260508090829 71 151 0.9 6.1 0.00 0.00 0.00 35 990.0
20260508090615 71 142 3.5 3.5 0.00 0.00 0.00 35 990.0
20260508090424 71 216 3.5 3.5 0.00 0.00 0.00 35 989.9
20260508090003 71 168 2.6 6.1 0.00 0.00 0.00 36 990.1
20260508085753 70 153 1.7 6.1 0.00 0.00 0.00 36 990.0
20260508085613 70 133 1.7 6.1 0.00 0.00 0.00 35 990.0
20260508085347 70 149 2.6 4.3 0.00 0.00 0.00 35 990.1
20260508085151 71 153 2.6 3.5 0.00 0.00 0.00 35 990.0
20260508084939 71 195 0.9 3.5 0.00 0.00 0.00 35 990.0
20260508084744 71 324 0.9 2.6 0.00 0.00 0.00 35 990.0
20260508084533 71 256 0.0 2.6 0.00 0.00 0.00 35 990.1
20260508083924 71 202 0.9 2.6 0.00 0.00 0.00 36 990.1
20260508083723 71 207 0.9 2.6 0.00 0.00 0.00 36 990.0
20260508083524 71 122 0.0 2.6 0.00 0.00 0.00 36 990.1
20260508082306 70 215 0.9 1.7 0.00 0.00 0.00 37 990.0
20260508082051 70 251 0.0 1.7 0.00 0.00 0.00 38 989.9
20260508081859 70 258 0.9 1.7 0.00 0.00 0.00 38 989.8
20260508081255 70 270 0.0 0.9 0.00 0.00 0.00 38 989.9
20260508081053 70 225 0.9 0.9 0.00 0.00 0.00 39 989.9
20260508080837 70 221 0.9 0.9 0.00 0.00 0.00 39 989.9
20260508080636 69 225 0.0 0.9 0.00 0.00 0.00 40 989.9
20260508080429 69 179 0.0 0.9 0.00 0.00 0.00 40 989.8
20260508080019 68 160 0.0 0.9 0.00 0.00 0.00 42 989.8
20260508075837 68 135 0.0 0.9 0.00 0.00 0.00 42 989.9
20260508075610 67 135 0.0 0.9 0.00 0.00 0.00 42 989.8
20260508075418 67 135 0.9 0.9 0.00 0.00 0.00 42 989.8
20260508075018 68 135 0.0 0.9 0.00 0.00 0.00 41 989.8
20260508074823 68 166 0.9 0.9 0.00 0.00 0.00 41 989.8
20260508074632 68 138 0.0 0.9 0.00 0.00 0.00 41 989.8
20260508074402 68 111 0.0 0.9 0.00 0.00 0.00 41 989.7
20260508074156 68 145 0.9 0.9 0.00 0.00 0.00 41 989.7
20260508073958 67 100 0.0 0.9 0.00 0.00 0.00 42 989.7
20260508073828 67 126 0.0 0.9 0.00 0.00 0.00 42 989.7
20260508073538 67 117 0.0 2.6 0.00 0.00 0.00 42 989.7
20260508073400 67 146 0.9 2.6 0.00 0.00 0.00 42 989.7
20260508073133 67 153 1.7 2.6 0.00 0.00 0.00 42 989.7
20260508072938 67 148 1.7 1.7 0.00 0.00 0.00 42 989.8
20260508072757 67 135 0.0 0.9 0.00 0.00 0.00 43 989.8
20260508072318 67 125 0.0 0.9 0.00 0.00 0.00 44 989.7
20260508071919 66 90 0.0 1.7 0.00 0.00 0.00 44 989.6
20260508071716 66 159 0.9 1.7 0.00 0.00 0.00 44 989.6
20260508071538 66 137 0.9 1.7 0.00 0.00 0.00 44 989.6
20260508071311 66 144 0.9 1.7 0.00 0.00 0.00 44 989.6
20260508071106 67 134 1.7 1.7 0.00 0.00 0.00 43 989.6
20260508070918 67 219 0.0 0.9 0.00 0.00 0.00 43 989.6
20260508070247 66 217 0.0 0.9 0.00 0.00 0.00 44 989.5
20260508070051 66 225 0.0 0.9 0.00 0.00 0.00 44 989.6
20260508065847 66 227 0.0 0.9 0.00 0.00 0.00 44 989.4
20260508065653 66 225 0.0 0.9 0.00 0.00 0.00 44 989.4
20260508065433 66 180 0.0 0.9 0.00 0.00 0.00 44 989.3
20260508065236 66 135 0.0 0.9 0.00 0.00 0.00 44 989.3
20260508065035 65 115 0.0 0.0 0.00 0.00 0.00 44 989.3
20260508064833 65 315 0.0 0.9 0.00 0.00 0.00 44 989.3
20260508064621 65 315 0.0 0.9 0.00 0.00 0.00 44 989.3
20260508064418 65 315 0.0 0.9 0.00 0.00 0.00 45 989.2
20260508064022 65 315 0.0 0.9 0.00 0.00 0.00 45 989.2
20260508063808 65 322 0.0 0.9 0.00 0.00 0.00 45 989.2
20260508063605 65 0 0.9 0.9 0.00 0.00 0.00 45 989.1
20260508063409 65 0 0.9 0.9 0.00 0.00 0.00 45 989.1
20260508063226 64 270 0.0 0.9 0.00 0.00 0.00 45 989.1
20260508063023 64 300 0.9 0.9 0.00 0.00 0.00 45 989.1
20260508062802 64 90 0.0 0.9 0.00 0.00 0.00 46 989.2
20260508062556 64 89 0.0 0.0 0.00 0.00 0.00 46 989.2
20260508062422 64 156 0.0 0.9 0.00 0.00 0.00 46 989.2
20260508062158 64 135 0.0 0.9 0.00 0.00 0.00 46 989.3
20260508061957 64 180 0.0 0.9 0.00 0.00 0.00 45 989.3
20260508061747 64 193 0.0 0.9 0.00 0.00 0.00 46 989.3
20260508061545 64 225 0.0 0.9 0.00 0.00 0.00 46 989.2
20260508061335 64 238 0.0 0.9 0.00 0.00 0.00 46 989.3
20260508060931 63 253 0.0 0.9 0.00 0.00 0.00 46 989.2
20260508060343 63 86 0.0 1.7 0.00 0.00 0.00 46 988.8
20260508060119 63 289 1.7 1.7 0.00 0.00 0.00 46 988.8
20260508055954 63 270 1.7 1.7 0.00 0.00 0.00 46 988.9
20260508055527 63 0 0.0 0.9 0.00 0.00 0.00 45 989.0
20260508055311 63 0 0.0 0.9 0.00 0.00 0.00 46 989.1
20260508055131 63 336 0.9 0.9 0.00 0.00 0.00 46 988.9
20260508054907 63 270 0.9 0.9 0.00 0.00 0.00 46 988.9
20260508054727 63 90 0.0 0.9 0.00 0.00 0.00 46 989.0
20260508054523 63 283 0.9 0.9 0.00 0.00 0.00 46 989.0
20260508054301 63 89 0.0 0.9 0.00 0.00 0.00 46 989.0
20260508054054 64 89 0.0 0.0 0.00 0.00 0.00 46 988.9
20260508053306 64 270 0.0 0.9 0.00 0.00 0.00 45 988.8
20260508053059 64 270 0.0 0.9 0.00 0.00 0.00 45 988.9
20260508052827 64 302 0.0 0.9 0.00 0.00 0.00 45 988.8
20260508052656 64 327 0.0 0.9 0.00 0.00 0.00 45 988.8
20260508052241 64 315 0.0 0.9 0.00 0.00 0.00 44 988.8
20260508052037 64 0 0.9 0.9 0.00 0.00 0.00 44 988.9
20260508051839 64 0 0.9 0.9 0.00 0.00 0.00 44 988.9
20260508051639 64 0 0.0 0.9 0.00 0.00 0.00 45 988.8
20260508051213 64 0 0.0 0.0 0.00 0.00 0.00 45 988.8
20260508050821 64 0 0.0 0.9 0.00 0.00 0.00 45 988.9
20260508050625 64 0 0.9 0.9 0.00 0.00 0.00 45 988.9
20260508050354 64 270 0.0 0.9 0.00 0.00 0.00 45 988.8
20260508050207 64 90 0.0 0.9 0.00 0.00 0.00 45 988.7
20260508045943 64 89 0.9 0.9 0.00 0.00 0.00 44 988.7
20260508045751 64 270 0.9 0.9 0.00 0.00 0.00 44 988.7
20260508045348 65 348 0.9 0.9 0.00 0.00 0.00 44 988.7
20260508045124 65 0 0.0 0.9 0.00 0.00 0.00 44 988.7
20260508044716 65 0 0.9 0.9 0.00 0.00 0.00 44 988.7
20260508044536 65 0 0.9 0.9 0.00 0.00 0.00 44 988.7
20260508044317 65 0 0.0 0.9 0.00 0.00 0.00 44 988.7
20260508044121 65 315 0.0 0.9 0.00 0.00 0.00 44 988.7
20260508043912 65 315 0.0 0.9 0.00 0.00 0.00 43 988.6
20260508043716 65 0 0.0 0.9 0.00 0.00 0.00 43 988.6
20260508043059 65 348 0.9 0.9 0.00 0.00 0.00 43 988.6
20260508042904 65 354 0.9 0.9 0.00 0.00 0.00 43 988.6
20260508042649 65 135 0.0 0.0 0.00 0.00 0.00 44 988.6
20260508042450 65 225 0.0 0.9 0.00 0.00 0.00 44 988.6
20260508042248 65 225 0.0 0.9 0.00 0.00 0.00 44 988.6
20260508042051 65 225 0.0 0.0 0.00 0.00 0.00 44 988.7
20260508041839 65 174 0.0 0.0 0.00 0.00 0.00 44 988.7
20260508041231 65 180 0.0 0.9 0.00 0.00 0.00 44 988.6
20260508041038 65 180 0.0 0.9 0.00 0.00 0.00 44 988.6
20260508040837 65 135 0.0 0.9 0.00 0.00 0.00 44 988.7
20260508040618 65 135 0.9 0.9 0.00 0.00 0.00 44 988.7
20260508040436 66 141 0.0 0.0 0.00 0.00 0.00 44 988.6
20260508040208 66 135 0.0 0.0 0.00 0.00 0.00 43 988.7
20260508040013 66 180 0.0 0.0 0.00 0.00 0.00 44 988.5
20260508035621 65 135 0.0 0.9 0.00 0.00 0.00 44 988.4
20260508035153 65 135 0.9 0.9 0.00 0.00 0.00 44 988.5
20260508034956 66 133 0.0 0.9 0.00 0.00 0.00 44 988.5
20260508034753 66 126 0.0 0.0 0.00 0.00 0.00 44 988.5
20260508034548 66 195 0.0 0.0 0.00 0.00 0.00 43 988.5
20260508034418 66 180 0.0 0.0 0.00 0.00 0.00 44 988.5
20260508034138 65 135 0.0 0.9 0.00 0.00 0.00 44 988.5
20260508033740 65 225 0.0 0.9 0.00 0.00 0.00 44 988.7
20260508033546 65 225 0.0 0.9 0.00 0.00 0.00 44 988.6
20260508033332 65 225 0.0 0.9 0.00 0.00 0.00 44 988.6
20260508033138 65 135 0.0 1.7 0.00 0.00 0.00 45 988.6
20260508032728 65 135 0.9 1.7 0.00 0.00 0.00 45 988.5
20260508032527 66 135 0.9 0.9 0.00 0.00 0.00 43 988.5
20260508032322 67 142 0.0 0.9 0.00 0.00 0.00 42 988.5
20260508032106 67 225 0.0 0.9 0.00 0.00 0.00 42 988.5
20260508031937 67 180 0.0 0.9 0.00 0.00 0.00 42 988.6
20260508031657 67 225 0.0 0.0 0.00 0.00 0.00 42 988.5
20260508031057 67 144 0.0 0.0 0.00 0.00 0.00 42 988.5
20260508030844 67 180 0.0 0.0 0.00 0.00 0.00 42 988.5
20260508030709 67 168 0.0 0.0 0.00 0.00 0.00 42 988.5
20260508030437 67 225 0.0 0.0 0.00 0.00 0.00 42 988.5
20260508030251 67 225 0.0 0.0 0.00 0.00 0.00 42 988.5
20260508030030 67 225 0.0 0.0 0.00 0.00 0.00 42 988.6
20260508025841 67 180 0.0 0.0 0.00 0.00 0.00 42 988.6
20260508025625 67 270 0.0 0.0 0.00 0.00 0.00 42 988.6
20260508025220 67 225 0.0 0.0 0.00 0.00 0.00 42 988.6
20260508025025 67 135 0.0 0.9 0.00 0.00 0.00 43 988.6
20260508024829 66 135 0.0 0.9 0.00 0.00 0.00 43 988.6
20260508024631 66 135 0.9 0.9 0.00 0.00 0.00 43 988.7
20260508024413 67 101 0.0 0.9 0.00 0.00 0.00 42 988.8
20260508024222 67 212 0.9 0.9 0.00 0.00 0.00 42 988.6
20260508024020 66 225 0.0 0.9 0.00 0.00 0.00 42 988.6
20260508023834 66 225 0.0 0.9 0.00 0.00 0.00 43 988.7
20260508023355 66 135 0.0 1.7 0.00 0.00 0.00 43 988.7
20260508023000 67 135 0.9 1.7 0.00 0.00 0.00 43 988.7
20260508022555 67 180 0.0 1.7 0.00 0.00 0.00 42 988.7
20260508022335 67 135 0.9 1.7 0.00 0.00 0.00 42 988.7
20260508022158 67 138 0.9 0.9 0.00 0.00 0.00 42 988.7
20260508021934 67 135 0.0 0.9 0.00 0.00 0.00 42 988.8
20260508021116 67 135 0.0 0.9 0.00 0.00 0.00 42 988.9
20260508020930 67 225 0.0 0.9 0.00 0.00 0.00 42 988.8
20260508020714 67 141 0.9 0.9 0.00 0.00 0.00 41 988.9
20260508020537 67 225 0.9 0.9 0.00 0.00 0.00 42 988.9
20260508020113 67 135 0.0 0.0 0.00 0.00 0.00 42 988.9
20260508015921 67 135 0.0 0.0 0.00 0.00 0.00 42 988.9
20260508015512 67 180 0.0 0.9 0.00 0.00 0.00 42 988.9
20260508015050 67 135 0.9 0.9 0.00 0.00 0.00 43 988.9
20260508014856 67 135 0.9 0.9 0.00 0.00 0.00 42 988.9
20260508014643 67 121 0.0 0.0 0.00 0.00 0.00 41 989.0
20260508014450 67 225 0.0 0.0 0.00 0.00 0.00 41 989.0
20260508013706 67 202 0.9 1.7 0.00 0.00 0.00 41 989.1
20260508013425 67 227 0.9 1.7 0.00 0.00 0.00 41 989.1
20260508013226 67 225 0.0 0.9 0.00 0.00 0.00 41 989.1
20260508013033 67 216 0.9 0.9 0.00 0.00 0.00 41 988.9
20260508012814 67 270 0.0 0.0 0.00 0.00 0.00 41 988.8
20260508012611 67 135 0.0 0.0 0.00 0.00 0.00 41 989.0
20260508012457 67 180 0.0 1.7 0.00 0.00 0.00 42 989.1
20260508012159 67 204 0.0 1.7 0.00 0.00 0.00 42 989.2
20260508012011 67 180 0.9 1.7 0.00 0.00 0.00 42 989.2
20260508011836 67 119 0.0 1.7 0.00 0.00 0.00 41 989.1
20260508011559 67 180 0.0 0.9 0.00 0.00 0.00 41 989.1
20260508011202 67 225 0.9 0.9 0.00 0.00 0.00 40 989.2
20260508010939 67 225 0.0 0.0 0.00 0.00 0.00 40 989.2
20260508010749 67 225 0.0 0.0 0.00 0.00 0.00 41 989.1
20260508010533 67 180 0.0 0.0 0.00 0.00 0.00 41 989.2
20260508010357 67 180 0.0 0.0 0.00 0.00 0.00 41 989.2
20260508010134 67 149 0.0 0.0 0.00 0.00 0.00 41 989.2
20260508005517 67 135 0.0 0.0 0.00 0.00 0.00 41 989.1
20260508005314 67 315 0.0 0.0 0.00 0.00 0.00 41 989.2
20260508005132 67 315 0.0 0.0 0.00 0.00 0.00 41 989.2
20260508004907 67 315 0.0 0.0 0.00 0.00 0.00 41 989.1
20260508004714 67 315 0.0 0.0 0.00 0.00 0.00 41 989.1
20260508004520 67 315 0.0 0.0 0.00 0.00 0.00 41 989.0
20260508004307 67 315 0.0 0.9 0.00 0.00 0.00 41 989.1
20260508004056 67 315 0.0 0.9 0.00 0.00 0.00 41 989.2
20260508003910 67 315 0.0 0.9 0.00 0.00 0.00 41 989.1
20260508003656 67 315 0.0 0.9 0.00 0.00 0.00 40 989.1
20260508003501 67 350 0.0 0.9 0.00 0.00 0.00 40 989.0
20260508003301 67 0 0.0 0.9 0.00 0.00 0.00 40 989.1
20260508003054 67 0 0.0 0.9 0.00 0.00 0.00 40 989.2
20260508002837 67 315 0.0 0.9 0.00 0.00 0.00 40 989.3
20260508002649 67 315 0.0 0.9 0.00 0.00 0.00 40 989.2
20260508002439 67 315 0.0 0.9 0.00 0.00 0.00 40 989.2
20260508002239 67 270 0.0 0.9 0.00 0.00 0.00 40 989.2
20260508002042 67 270 0.0 0.9 0.00 0.00 0.00 40 989.2
20260508001836 67 270 0.9 0.9 0.00 0.00 0.00 39 989.4
20260508001622 67 270 0.0 0.9 0.00 0.00 0.00 40 989.3
20260508001442 67 270 0.0 0.9 0.00 0.00 0.00 39 989.4
20260508001241 67 270 0.0 0.9 0.00 0.00 0.00 39 989.3
20260508001017 67 315 0.0 0.9 0.00 0.00 0.00 39 989.3
20260508000830 68 0 0.0 0.9 0.00 0.00 0.00 39 989.3
20260508000623 68 0 0.0 0.9 0.00 0.00 0.00 39 989.3
20260508000413 68 0 0.0 0.9 0.00 0.00 0.00 39 989.4
20260507235822 68 315 0.0 0.9 0.00 0.00 0.00 38 989.3
20260507235557 68 319 0.9 0.9 0.00 0.00 0.00 38 989.3
20260507235358 68 0 0.0 0.0 0.00 0.00 0.00 38 989.3
20260507235143 68 0 0.0 0.0 0.00 0.00 0.00 39 989.4
20260507234943 68 0 0.0 0.0 0.00 0.00 0.00 39 989.5
20260507234749 68 0 0.0 0.0 0.00 0.00 0.00 38 989.5
20260507234537 68 0 0.0 0.0 0.00 0.00 0.00 38 989.4
20260507234325 68 0 0.0 0.0 0.00 0.00 0.00 38 989.4
20260507234143 68 0 0.0 0.0 0.00 0.00 0.00 38 989.4
20260507233921 69 0 0.0 0.9 0.00 0.00 0.00 38 989.5
20260507233729 69 315 0.0 0.9 0.00 0.00 0.00 38 989.5
20260507233324 69 0 0.9 0.9 0.00 0.00 0.00 37 989.6
20260507233111 69 0 0.0 0.9 0.00 0.00 0.00 37 989.5
20260507232926 69 0 0.0 0.9 0.00 0.00 0.00 37 989.5
20260507232707 69 0 0.0 0.9 0.00 0.00 0.00 37 989.5
20260507232512 69 0 0.0 0.9 0.00 0.00 0.00 37 989.6
20260507232323 69 122 0.0 0.9 0.00 0.00 0.00 37 989.6
20260507232115 69 270 0.0 0.9 0.00 0.00 0.00 37 989.6
20260507231847 69 270 0.0 0.9 0.00 0.00 0.00 37 989.7
20260507231724 69 270 0.0 0.9 0.00 0.00 0.00 37 989.7
20260507231442 69 90 0.0 0.9 0.00 0.00 0.00 37 989.7
20260507231246 69 315 0.0 0.0 0.00 0.00 0.00 37 989.7
20260507231046 69 315 0.0 0.0 0.00 0.00 0.00 37 989.7
20260507230640 69 315 0.0 0.9 0.00 0.00 0.00 37 989.6
20260507230458 69 315 0.0 1.7 0.00 0.00 0.00 37 989.6
20260507230034 69 357 1.7 1.7 0.00 0.00 0.00 37 989.5
20260507225823 70 342 0.9 0.9 0.00 0.00 0.00 36 989.6
20260507225628 70 338 0.9 0.9 0.00 0.00 0.00 36 989.5
20260507225415 70 0 0.0 0.9 0.00 0.00 0.00 36 989.6
20260507225241 70 0 0.9 0.9 0.00 0.00 0.00 36 989.8
20260507224816 70 315 0.0 0.9 0.00 0.00 0.00 36 989.9
20260507224558 70 0 0.0 0.9 0.00 0.00 0.00 36 989.9
20260507224401 70 315 0.0 0.0 0.00 0.00 0.00 36 989.9
20260507224003 70 315 0.0 0.9 0.00 0.00 0.00 36 990.0
20260507223743 70 341 0.9 0.9 0.00 0.00 0.00 36 990.1
20260507223551 70 315 0.0 0.9 0.00 0.00 0.00 36 990.1
20260507223345 70 0 0.9 0.9 0.00 0.00 0.00 36 990.0
20260507223146 69 315 0.0 0.9 0.00 0.00 0.00 36 990.0
20260507222938 69 0 0.0 0.9 0.00 0.00 0.00 36 990.0
20260507222736 69 315 0.0 0.9 0.00 0.00 0.00 36 990.0
20260507222551 70 315 0.9 1.7 0.00 0.00 0.00 36 990.0
20260507222337 70 277 0.0 1.7 0.00 0.00 0.00 36 990.0
20260507222138 70 270 0.0 1.7 0.00 0.00 0.00 36 990.0
20260507221713 70 270 1.7 1.7 0.00 0.00 0.00 36 990.1
20260507221536 70 336 0.9 0.9 0.00 0.00 0.00 36 990.1
20260507221135 70 315 0.0 0.9 0.00 0.00 0.00 36 990.0
20260507220906 70 351 0.9 0.9 0.00 0.00 0.00 36 990.0
20260507220714 70 334 0.9 0.9 0.00 0.00 0.00 36 990.1
20260507220506 70 270 0.9 1.7 0.00 0.00 0.00 36 990.2
20260507220302 70 270 0.0 1.7 0.00 0.00 0.00 36 990.2
20260507220049 70 294 0.9 1.7 0.00 0.00 0.00 36 990.1
20260507215904 69 258 0.0 0.9 0.00 0.00 0.00 36 990.2
20260507215653 69 281 0.9 2.6 0.00 0.00 0.00 36 990.1
20260507215446 69 270 0.9 2.6 0.00 0.00 0.00 36 990.1
20260507215238 69 315 0.0 2.6 0.00 0.00 0.00 36 990.1
20260507215044 69 301 0.9 0.9 0.00 0.00 0.00 36 990.2
20260507214834 69 308 0.0 0.9 0.00 0.00 0.00 36 990.2
20260507214421 69 315 0.9 0.9 0.00 0.00 0.00 36 990.2
20260507214239 69 315 0.0 0.9 0.00 0.00 0.00 36 990.1
20260507213827 69 315 0.0 1.7 0.00 0.00 0.00 36 990.2
20260507213628 69 315 0.0 1.7 0.00 0.00 0.00 36 990.2
20260507213443 69 0 0.9 1.7 0.00 0.00 0.00 36 990.2
20260507213212 69 315 0.0 0.9 0.00 0.00 0.00 36 990.2
20260507213032 69 315 0.0 0.9 0.00 0.00 0.00 35 990.2
20260507212819 70 315 0.0 0.9 0.00 0.00 0.00 35 990.2
20260507212647 70 0 0.9 0.9 0.00 0.00 0.00 35 990.1
20260507212221 70 315 0.0 0.9 0.00 0.00 0.00 35 990.4
20260507211952 70 315 0.0 0.9 0.00 0.00 0.00 35 990.3
20260507211808 70 274 0.0 0.9 0.00 0.00 0.00 35 990.3
20260507211626 70 343 0.9 0.9 0.00 0.00 0.00 35 990.2
20260507211355 70 315 0.0 0.9 0.00 0.00 0.00 35 990.3
20260507211018 70 315 0.0 0.9 0.00 0.00 0.00 35 990.4
20260507210725 70 315 0.0 0.9 0.00 0.00 0.00 35 990.3
20260507210548 70 347 0.9 0.9 0.00 0.00 0.00 35 990.3
20260507210326 70 0 0.0 0.9 0.00 0.00 0.00 35 990.3
20260507205935 70 315 0.0 0.9 0.00 0.00 0.00 35 990.3
20260507205719 70 315 0.9 1.7 0.00 0.00 0.00 34 990.3
20260507204913 70 270 0.9 0.9 0.00 0.00 0.00 34 990.2
20260507204659 70 0 0.9 0.9 0.00 0.00 0.00 34 990.2
20260507204456 70 0 0.0 0.9 0.00 0.00 0.00 34 990.2
20260507204253 70 318 0.9 0.9 0.00 0.00 0.00 34 990.1
20260507203839 71 315 0.9 0.9 0.00 0.00 0.00 34 990.0
20260507203709 71 315 0.9 0.9 0.00 0.00 0.00 34 990.0
20260507203440 71 315 0.9 1.7 0.00 0.00 0.00 33 989.9
20260507203240 71 311 0.9 1.7 0.00 0.00 0.00 33 989.8
20260507203129 71 315 0.9 1.7 0.00 0.00 0.00 33 989.8
20260507202839 71 287 0.0 1.7 0.00 0.00 0.00 33 989.7
20260507202621 71 342 0.9 0.9 0.00 0.00 0.00 33 989.8
20260507202443 71 332 0.0 0.9 0.00 0.00 0.00 33 989.7
20260507201834 71 315 0.9 0.9 0.00 0.00 0.00 33 989.7
20260507201618 71 315 0.9 1.7 0.00 0.00 0.00 33 989.7
20260507201408 71 0 0.9 1.7 0.00 0.00 0.00 33 989.7
20260507201051 71 315 0.0 1.7 0.00 0.00 0.00 33 989.7
20260507200802 71 333 0.0 2.6 0.00 0.00 0.00 33 989.6
20260507200610 71 346 0.9 2.6 0.00 0.00 0.00 33 989.6
20260507200414 71 313 1.7 1.7 0.00 0.00 0.00 33 989.5
20260507200149 71 326 0.9 1.7 0.00 0.00 0.00 33 989.4
20260507195945 71 320 0.9 1.7 0.00 0.00 0.00 33 989.4
20260507195743 71 313 0.9 2.6 0.00 0.00 0.00 33 989.4
20260507195606 71 282 1.7 3.5 0.00 0.00 0.00 33 989.5
20260507195342 72 355 1.7 3.5 0.00 0.00 0.00 33 989.5
20260507195143 72 313 2.6 2.6 0.00 0.00 0.00 33 989.5
20260507194732 72 325 0.9 1.7 0.00 0.00 0.00 33 989.5
20260507194330 72 317 0.9 4.3 0.00 0.00 0.00 32 989.4
20260507193942 72 305 1.7 3.5 0.00 0.00 0.00 32 989.3
20260507193105 72 338 1.7 3.5 0.00 0.00 0.00 32 989.3
20260507192717 72 315 0.9 2.6 0.00 0.00 0.00 32 989.3
20260507192452 72 312 0.9 2.6 0.00 0.00 0.00 32 989.2
20260507192257 72 318 1.7 2.6 0.00 0.00 0.00 32 989.2
20260507192137 72 332 1.7 3.5 0.00 0.00 0.00 32 989.2
20260507191844 72 337 1.7 5.2 0.00 0.00 0.00 32 989.2
20260507191232 72 312 1.7 6.1 0.00 0.00 0.00 32 989.1
20260507191044 72 343 4.3 5.2 0.00 0.00 0.00 32 989.1
20260507190850 72 312 2.6 7.0 0.00 0.00 0.00 31 989.1
20260507190632 72 344 3.5 7.0 0.00 0.00 0.00 31 989.0
20260507190417 72 289 5.2 7.0 0.00 0.00 0.00 31 989.1
20260507190220 73 324 3.5 5.2 0.00 0.00 0.00 31 989.1
20260507190033 73 309 4.3 5.2 0.00 0.00 0.00 31 989.0
20260507185844 73 325 3.5 5.2 0.00 0.00 0.00 31 989.1
20260507185603 73 336 2.6 4.3 0.00 0.00 0.00 30 989.2
20260507185410 73 316 1.7 3.5 0.00 0.00 0.00 30 989.2
20260507185201 73 337 2.6 3.5 0.00 0.00 0.00 30 989.1
20260507185025 73 303 0.9 4.3 0.00 0.00 0.00 30 989.0
20260507184814 73 317 2.6 5.2 0.00 0.00 0.00 30 989.0
20260507184159 74 244 0.9 5.2 0.00 0.00 0.00 30 989.0
20260507183805 74 295 0.9 7.0 0.00 0.00 0.00 30 988.9
20260507183551 74 271 2.6 8.7 0.00 0.00 0.00 30 988.8
20260507183341 74 323 3.5 8.7 0.00 0.00 0.00 29 988.8
20260507183130 74 295 4.3 8.7 0.00 0.00 0.00 29 988.8
20260507182715 74 286 2.6 8.7 0.00 0.00 0.00 29 988.7
20260507182528 75 268 1.7 8.7 0.00 0.00 0.00 28 988.8
20260507182122 75 313 1.7 7.0 0.00 0.00 0.00 28 988.6
20260507181907 75 310 5.2 7.0 0.00 0.00 0.00 28 988.6
20260507181733 75 330 1.7 5.2 0.00 0.00 0.00 27 988.7
20260507181504 75 298 3.5 8.7 0.00 0.00 0.00 27 988.6
20260507181108 75 261 6.1 9.6 0.00 0.00 0.00 27 988.5
20260507180902 76 331 2.6 9.6 0.00 0.00 0.00 27 988.5
20260507180506 76 289 1.7 7.0 0.00 0.00 0.00 26 988.3
20260507180242 76 263 4.3 7.0 0.00 0.00 0.00 27 988.4
20260507180050 77 278 2.6 7.8 0.00 0.00 0.00 26 988.3
20260507175637 77 106 3.5 5.2 0.00 0.00 0.00 26 988.1
20260507175432 77 312 0.9 7.8 0.00 0.00 0.00 25 988.0
20260507175239 77 274 2.6 7.8 0.00 0.00 0.00 25 988.0
20260507174825 78 309 3.5 7.0 0.00 0.00 0.00 24 988.1
20260507174618 78 304 3.5 7.0 0.00 0.00 0.00 24 988.0
20260507174217 78 301 6.1 7.8 0.00 0.00 0.00 24 987.9
20260507174014 78 266 4.3 5.2 0.00 0.00 0.00 24 988.0
20260507173807 78 326 2.6 5.2 0.00 0.00 0.00 24 987.8
20260507173611 78 319 3.5 6.1 0.00 0.00 0.00 24 987.8
20260507173401 78 326 2.6 6.1 0.00 0.00 0.00 24 987.9
20260507173225 78 286 6.1 7.0 0.00 0.00 0.00 23 988.0
20260507173004 78 303 3.5 7.0 0.00 0.00 0.00 23 988.0
20260507172744 79 320 7.0 7.0 0.00 0.00 0.00 23 987.9
20260507172602 79 320 6.1 6.1 0.00 0.00 0.00 22 988.0
20260507172141 79 308 4.3 5.2 0.00 0.00 0.00 22 987.9
20260507172027 79 343 3.5 6.1 0.00 0.00 0.00 22 987.9
20260507171732 79 333 2.6 6.1 0.00 0.00 0.00 22 987.8
20260507171539 80 310 4.3 6.1 0.00 0.00 0.00 21 987.8
20260507171348 80 337 5.2 5.2 0.00 0.00 0.00 21 987.7
20260507171126 80 346 3.5 5.2 0.00 0.00 0.00 21 987.7
20260507170929 80 319 4.3 4.3 0.00 0.00 0.00 21 987.7
20260507170802 80 326 3.5 3.5 0.00 0.00 0.00 21 987.8
20260507170516 79 320 2.6 4.3 0.00 0.00 0.00 21 987.8
20260507170321 79 241 0.9 5.2 0.00 0.00 0.00 21 987.8
20260507170105 79 279 0.9 5.2 0.00 0.00 0.00 21 987.8
20260507165948 79 283 3.5 4.3 0.00 0.00 0.00 21 987.8
20260507165507 79 310 1.7 4.3 0.00 0.00 0.00 20 987.8
20260507165256 80 345 2.6 6.1 0.00 0.00 0.00 20 987.7
20260507164843 81 318 1.7 6.1 0.00 0.00 0.00 18 987.8
20260507164710 82 305 5.2 6.1 0.00 0.00 0.00 18 987.7
20260507164439 82 333 0.9 5.2 0.00 0.00 0.00 18 987.8
20260507164034 82 281 2.6 5.2 0.00 0.00 0.00 18 987.8
20260507163842 82 255 4.3 7.0 0.00 0.00 0.00 18 987.7
20260507163645 82 295 2.6 7.0 0.00 0.00 0.00 17 987.7
20260507163457 82 269 7.0 7.0 0.00 0.00 0.00 17 987.7
20260507163218 82 275 4.3 6.1 0.00 0.00 0.00 17 987.6
20260507162857 82 258 3.5 5.2 0.00 0.00 0.00 17 987.7
20260507162623 82 255 3.5 3.5 0.00 0.00 0.00 16 987.7
20260507162416 83 268 3.5 3.5 0.00 0.00 0.00 16 987.7
20260507162245 83 256 0.0 5.2 0.00 0.00 0.00 15 987.7
20260507162000 83 229 0.9 5.2 0.00 0.00 0.00 15 987.6
20260507161410 84 271 4.3 4.3 0.00 0.00 0.00 14 987.6
20260507161158 85 288 1.7 4.3 0.00 0.00 0.00 13 987.5
20260507161020 85 304 1.7 4.3 0.00 0.00 0.00 14 987.5
20260507160552 85 256 0.9 3.5 0.00 0.00 0.00 14 987.6
20260507160346 85 303 0.9 5.2 0.00 0.00 0.00 14 987.6
20260507160146 84 230 1.7 7.8 0.00 0.00 0.00 14 987.6
20260507155928 84 272 1.7 7.8 0.00 0.00 0.00 14 987.7
20260507155528 83 101 0.9 2.6 0.00 0.00 0.00 15 987.5
20260507155343 83 303 0.9 3.5 0.00 0.00 0.00 16 987.7
20260507155121 82 112 0.0 7.0 0.00 0.00 0.00 16 987.7
20260507154937 82 273 2.6 7.0 0.00 0.00 0.00 15 987.7
20260507154715 83 282 0.9 4.3 0.00 0.00 0.00 15 987.7
20260507153859 83 314 0.9 3.5 0.00 0.00 0.00 15 987.7
20260507153707 83 246 0.9 1.7 0.00 0.00 0.00 15 987.7
20260507153456 83 90 0.0 4.3 0.00 0.00 0.00 14 987.8
20260507153300 83 286 1.7 6.1 0.00 0.00 0.00 15 987.8
20260507152855 83 242 3.5 7.0 0.00 0.00 0.00 14 987.9
20260507152636 83 253 3.5 7.0 0.00 0.00 0.00 15 987.9
20260507152507 83 285 5.2 7.0 0.00 0.00 0.00 15 987.9
20260507152237 83 293 1.7 5.2 0.00 0.00 0.00 16 987.8
20260507152041 82 304 1.7 5.2 0.00 0.00 0.00 16 987.8
20260507151913 83 336 3.5 5.2 0.00 0.00 0.00 15 987.9
20260507151634 83 318 3.5 5.2 0.00 0.00 0.00 15 987.8
20260507151017 84 193 0.9 4.3 0.00 0.00 0.00 14 988.0
20260507150848 84 300 3.5 4.3 0.00 0.00 0.00 14 988.0
20260507150611 84 0 0.0 3.5 0.00 0.00 0.00 14 988.0
20260507150416 84 230 2.6 7.8 0.00 0.00 0.00 14 987.9
20260507150205 84 265 0.9 7.8 0.00 0.00 0.00 14 987.9
20260507150009 84 290 2.6 7.8 0.00 0.00 0.00 14 988.0
20260507145559 83 304 2.6 5.2 0.00 0.00 0.00 15 988.0
20260507145352 83 250 1.7 5.2 0.00 0.00 0.00 15 988.1
20260507144736 84 256 3.5 4.3 0.00 0.00 0.00 14 988.2
20260507144133 83 306 2.6 5.2 0.00 0.00 0.00 14 988.1
20260507143539 83 308 2.6 6.1 0.00 0.00 0.00 15 988.3
20260507142111 83 259 5.2 6.1 0.00 0.00 0.00 15 988.5
20260507141903 83 292 2.6 5.2 0.00 0.00 0.00 15 988.5
20260507141711 83 237 1.7 5.2 0.00 0.00 0.00 15 988.6
20260507141302 83 298 2.6 6.1 0.00 0.00 0.00 15 988.7
20260507141053 83 264 2.6 7.8 0.00 0.00 0.00 15 988.7
20260507140852 83 265 5.2 7.8 0.00 0.00 0.00 15 988.7
20260507140701 83 245 6.1 6.1 0.00 0.00 0.00 15 988.7
20260507140428 83 238 3.5 4.3 0.00 0.00 0.00 15 988.7
20260507140233 83 258 0.9 5.2 0.00 0.00 0.00 15 988.7
20260507140042 83 232 3.5 5.2 0.00 0.00 0.00 15 988.8
20260507135420 82 229 2.6 4.3 0.00 0.00 0.00 16 988.7
20260507135224 82 255 1.7 5.2 0.00 0.00 0.00 16 988.8
20260507135015 82 243 4.3 5.2 0.00 0.00 0.00 16 988.7
20260507134820 81 240 2.6 5.2 0.00 0.00 0.00 16 988.8
20260507134615 81 234 2.6 3.5 0.00 0.00 0.00 17 988.7
20260507134408 81 346 1.7 5.2 0.00 0.00 0.00 18 988.8
20260507133957 80 310 2.6 5.2 0.00 0.00 0.00 17 988.7
20260507133822 81 307 2.6 6.1 0.00 0.00 0.00 17 988.7
20260507133351 82 311 3.5 7.8 0.00 0.00 0.00 16 988.7
20260507133015 81 220 2.6 2.6 0.00 0.00 0.00 17 988.7
20260507132753 81 201 0.9 2.6 0.00 0.00 0.00 17 988.7
20260507132549 81 141 1.7 2.6 0.00 0.00 0.00 16 988.7
20260507132409 81 189 1.7 3.5 0.00 0.00 0.00 17 988.7
20260507132129 81 274 0.9 4.3 0.00 0.00 0.00 17 988.7
20260507131919 81 306 0.9 4.3 0.00 0.00 0.00 17 988.9
20260507131516 80 342 1.7 3.5 0.00 0.00 0.00 17 988.9
20260507131322 81 275 2.6 6.1 0.00 0.00 0.00 17 989.0
20260507131136 81 331 0.9 7.0 0.00 0.00 0.00 16 988.9
20260507130904 81 313 2.6 7.0 0.00 0.00 0.00 16 989.0
20260507130300 82 240 3.5 4.3 0.00 0.00 0.00 16 989.0
20260507125701 81 232 4.3 4.3 0.00 0.00 0.00 17 989.0
20260507124833 82 225 4.3 4.3 0.00 0.00 0.00 16 989.1
20260507124633 82 284 0.9 5.2 0.00 0.00 0.00 16 989.1
20260507124451 81 229 3.5 5.2 0.00 0.00 0.00 16 989.2
20260507124224 81 237 3.5 5.2 0.00 0.00 0.00 17 989.1
20260507124034 81 108 0.0 6.1 0.00 0.00 0.00 17 989.2
20260507123816 80 262 2.6 6.1 0.00 0.00 0.00 17 989.2
20260507123619 80 270 4.3 4.3 0.00 0.00 0.00 17 989.1
20260507123423 81 344 0.9 4.3 0.00 0.00 0.00 17 989.3
20260507123244 81 248 0.0 5.2 0.00 0.00 0.00 17 989.4
20260507123002 81 279 1.7 5.2 0.00 0.00 0.00 16 989.4
20260507122815 82 301 2.6 4.3 0.00 0.00 0.00 16 989.4
20260507122613 82 262 0.9 4.3 0.00 0.00 0.00 17 989.4
20260507122412 82 267 4.3 4.3 0.00 0.00 0.00 16 989.4
20260507121403 82 297 3.5 7.0 0.00 0.00 0.00 17 989.5
20260507121147 81 134 1.7 3.5 0.00 0.00 0.00 17 989.6
20260507120736 81 217 0.9 4.3 0.00 0.00 0.00 17 989.6
20260507120121 81 230 2.6 5.2 0.00 0.00 0.00 18 989.7
20260507115945 81 243 5.2 5.2 0.00 0.00 0.00 19 989.6
20260507115545 80 199 0.9 5.2 0.00 0.00 0.00 19 989.8
20260507115312 79 218 0.9 5.2 0.00 0.00 0.00 18 989.8
20260507115117 79 200 1.7 5.2 0.00 0.00 0.00 20 989.8
20260507114304 80 243 2.6 2.6 0.00 0.00 0.00 20 989.8
20260507113704 80 295 0.0 3.5 0.00 0.00 0.00 20 989.9
20260507113520 80 319 0.9 4.3 0.00 0.00 0.00 20 989.8
20260507113240 80 300 1.7 5.2 0.00 0.00 0.00 20 989.8
20260507113039 80 285 1.7 5.2 0.00 0.00 0.00 20 989.8
20260507112647 81 275 3.5 5.2 0.00 0.00 0.00 20 989.9
20260507112427 81 309 4.3 4.3 0.00 0.00 0.00 20 989.7
20260507112247 80 279 0.9 3.5 0.00 0.00 0.00 20 989.8
20260507112021 80 251 1.7 2.6 0.00 0.00 0.00 19 989.7
20260507111855 79 270 2.6 3.5 0.00 0.00 0.00 21 989.7
20260507111427 79 279 1.7 6.1 0.00 0.00 0.00 22 989.7
20260507111203 78 208 0.9 6.1 0.00 0.00 0.00 22 989.8
20260507111040 78 230 4.3 5.2 0.00 0.00 0.00 23 989.8
20260507110806 77 259 2.6 4.3 0.00 0.00 0.00 24 989.8
20260507110621 77 253 0.9 4.3 0.00 0.00 0.00 24 989.8
20260507110405 77 260 2.6 4.3 0.00 0.00 0.00 24 989.9
20260507105955 77 309 3.5 5.2 0.00 0.00 0.00 24 989.8
20260507105350 78 326 1.7 7.8 0.00 0.00 0.00 24 989.7
20260507104954 78 311 3.5 6.1 0.00 0.00 0.00 24 989.8
20260507104533 77 147 0.9 5.2 0.00 0.00 0.00 23 989.8
20260507104343 77 289 3.5 6.1 0.00 0.00 0.00 23 989.8
20260507104134 77 333 4.3 6.1 0.00 0.00 0.00 23 989.8
20260507103910 77 298 1.7 5.2 0.00 0.00 0.00 24 989.8
20260507103721 77 269 4.3 5.2 0.00 0.00 0.00 23 989.8
20260507103511 78 321 2.6 7.8 0.00 0.00 0.00 24 989.8
20260507103317 78 222 0.9 7.8 0.00 0.00 0.00 23 989.8
20260507103120 78 290 7.8 7.8 0.00 0.00 0.00 24 989.8
20260507102907 78 255 1.7 5.2 0.00 0.00 0.00 25 989.8
20260507102658 78 297 1.7 5.2 0.00 0.00 0.00 24 989.8
20260507102507 78 310 1.7 5.2 0.00 0.00 0.00 24 989.8
20260507102057 78 223 0.9 2.6 0.00 0.00 0.00 25 989.7
20260507101901 77 252 1.7 2.6 0.00 0.00 0.00 25 989.7
20260507101646 77 237 0.9 4.3 0.00 0.00 0.00 24 989.8
20260507101439 77 234 1.7 6.1 0.00 0.00 0.00 24 989.7
20260507101303 77 315 4.3 6.1 0.00 0.00 0.00 24 989.7
20260507101025 78 325 3.5 6.1 0.00 0.00 0.00 25 989.8